Location: Peterborough
(44.3091°N, 78.3197°W)
Time: 15:59:19
(UTC-04:00)

Transit 2A Rocket - Pass Details

Date: 28 March 2023
Orbit: 584 x 914 km, 66.7° (Epoch: 04 June)

Event Time Altitude Azimuth Distance (km) Brightness Sun altitude
Rises 10:29:32 0° 168° (SSE) 3,217 8.8 34.5°
Reaches altitude 10° 10:32:22 10° 153° (SSE) 2,356 8.6 34.9°
Maximum altitude 10:36:22 21° 105° (ESE) 1,780 8.4 35.5°
Drops below altitude 10° 10:40:36 10° 58° (ENE) 2,515 8.0 36.1°
Sets 10:43:43 0° 44° (NE) 3,499 8.5 36.5°
